Flag for China Weather past 2 weeks in Chongqing, China

Now
64 °F

Scattered clouds.


Feels Like: 64 °F
Forecast: 62 / 74 °F
Wind: 10 mph from Northeast

Location: Chongqing Airport


UV Index: 5 (Moderate)

Visibility: N/A


Pressure: 29.77 "Hg

Humidity: 78%

Dew point: 57 °F

Location of ChongqingLocation

Historic Weather in Chongqing

°F

Chongqing temperature yesterday

Maximum temperature yesterday: 72 °F (at 12:00 AM)
Minimum temperature yesterday: 63 °F (at 5:00 AM)
Average temperature yesterday: 66 °F

Past Weeks' High & Low Weather Summary

 TemperatureHumidityPressure
High86 °F (Apr 17, 3:00 PM)100% (Apr 11, 5:00 AM)30.12 "Hg (Apr 11, 5:00 AM)
Low57 °F (Apr 5, 6:00 PM)47% (Apr 8, 2:00 PM)29.56 "Hg (Apr 17, 4:00 PM)
Average69 °F77%29.84 "Hg
* Reported Apr 5 6:00 PM — Apr 20 6:00 PM, Chongqing, Weather by CustomWeather, © 2014

Note: Actual official high and low records may vary slightly from our data, if they occured in-between our weather recording intervals... More about our weather records

Advertising

Historic Weather Conditions — Data for Previous 24 hours

 ConditionsComfort  
Time TempWeatherWind HumidityBarometerVisibility
6:00 PM
Apr 20
64 °FScattered clouds.10 mph78%29.77 "HgN/A
5:00 PM64 °FSunny.10 mph73%29.77 "Hg10 mi
4:00 PM64 °FSunny.13 mph73%29.80 "Hg10 mi
3:00 PM64 °FSunny.10 mph78%29.80 "Hg10 mi
2:00 PM64 °FSunny.10 mph78%29.83 "Hg10 mi
1:00 PM64 °FScattered clouds.10 mph78%29.86 "HgN/A
12:00 PM64 °FScattered clouds.10 mph78%29.89 "HgN/A
11:00 AM64 °FScattered clouds.8 mph83%29.89 "HgN/A
10:00 AM64 °FSprinkles. More clouds than sun.10 mph83%29.89 "HgN/A
9:00 AM63 °FMore clouds than sun.13 mph88%29.89 "HgN/A
8:00 AM63 °FLight rain. Scattered clouds.13 mph88%29.89 "HgN/A
7:00 AM63 °FSprinkles. More clouds than sun.10 mph88%29.86 "HgN/A
6:00 AM63 °FLight rain. Mostly cloudy.10 mph94%29.86 "HgN/A
5:00 AM63 °FLight rain. Mostly cloudy.8 mph94%29.89 "HgN/A
4:00 AM63 °FLight rain. Mostly cloudy.8 mph94%29.89 "HgN/A
3:00 AM64 °FLight rain. Mostly cloudy.6 mph88%29.89 "HgN/A
2:00 AM64 °FLight rain. Mostly cloudy.6 mph88%29.92 "HgN/A
1:00 AM64 °FLight rain. Mostly cloudy.3 mph88%29.95 "HgN/A
12:00 AM64 °FPassing clouds.1 mph88%29.95 "HgN/A
11:00 PM
Apr 19
64 °FPassing clouds.8 mph88%29.95 "HgN/A
10:00 PM64 °FPassing clouds.6 mph88%29.95 "HgN/A
9:00 PM64 °FPassing clouds.6 mph88%29.95 "HgN/A
8:00 PM64 °FPassing clouds.3 mph88%29.95 "HgN/A
7:00 PM66 °FPassing clouds.6 mph83%29.92 "HgN/A
Weather by CustomWeather, © 2014

See weather overview